Time,TemperatureF,DewpointF,PressureIn,WindDirection,WindDirectionDegrees,WindSpeedMPH,WindSpeedGustMPH,Humidity,HourlyPrecipIn,Conditions,Clouds,dailyrainin,SoftwareType,DateUTC
2013-10-09 00:02:00,61.9,43.6,28.38,NNE,12,5.4,5.4,51,0.00,,---,0.00,VWS V14.01,2013-10-09 05:02:00,
2013-10-09 00:07:00,61.7,43.4,28.38,ESE,122,3.1,5.4,51,0.00,,---,0.00,VWS V14.01,2013-10-09 05:07:00,
2013-10-09 00:12:00,61.7,43.4,28.38,SSE,154,3.1,6.7,51,0.00,,---,0.00,VWS V14.01,2013-10-09 05:12:00,
2013-10-09 00:17:00,61.5,43.2,28.38,SSE,166,3.1,6.7,51,0.00,,---,0.00,VWS V14.01,2013-10-09 05:17:00,
2013-10-09 00:22:00,61.5,43.2,28.38,SE,129,2.7,6.7,51,0.00,,---,0.00,VWS V14.01,2013-10-09 05:22:00,
2013-10-09 00:27:00,61.3,43.6,28.38,SE,136,4.0,6.7,52,0.00,,---,0.00,VWS V14.01,2013-10-09 05:27:00,
2013-10-09 00:32:00,61.2,43.4,28.38,ESE,121,2.2,6.7,52,0.00,,---,0.00,VWS V14.01,2013-10-09 05:32:00,
2013-10-09 00:37:00,61.2,43.4,28.38,SE,139,2.7,6.7,52,0.00,,---,0.00,VWS V14.01,2013-10-09 05:37:00,
2013-10-09 00:43:00,61.2,43.4,28.38,SE,145,2.7,6.7,52,0.00,,---,0.00,VWS V14.01,2013-10-09 05:43:00,
2013-10-09 00:48:00,61.0,43.2,28.38,SSE,150,5.8,10.5,52,0.00,,---,0.00,VWS V14.01,2013-10-09 05:48:00,
2013-10-09 00:53:00,61.0,43.8,28.38,SE,131,3.1,10.5,53,0.00,,---,0.00,VWS V14.01,2013-10-09 05:53:00,
2013-10-09 00:58:00,60.8,43.6,28.38,ESE,118,4.0,10.5,53,0.00,,---,0.00,VWS V14.01,2013-10-09 05:58:00,
2013-10-09 01:03:00,60.6,43.4,28.38,ESE,117,4.0,5.8,53,0.00,,---,0.00,VWS V14.01,2013-10-09 06:03:00,
2013-10-09 01:08:00,60.4,43.2,28.38,SSE,149,3.6,5.8,53,0.00,,---,0.00,VWS V14.01,2013-10-09 06:08:00,
2013-10-09 01:13:00,60.4,43.7,28.38,SSE,161,3.1,5.8,54,0.00,,---,0.00,VWS V14.01,2013-10-09 06:13:00,
2013-10-09 01:18:00,60.3,43.6,28.38,SSE,168,3.1,5.8,54,0.00,,---,0.00,VWS V14.01,2013-10-09 06:18:00,
2013-10-09 01:23:00,60.1,43.4,28.38,SE,131,3.1,5.8,54,0.00,,---,0.00,VWS V14.01,2013-10-09 06:23:00,
2013-10-09 01:28:00,59.9,43.2,28.38,SE,137,3.6,6.3,54,0.00,,---,0.00,VWS V14.01,2013-10-09 06:28:00,
2013-10-09 01:33:00,59.7,43.1,28.38,ESE,109,3.6,8.1,54,0.00,,---,0.00,VWS V14.01,2013-10-09 06:33:00,
2013-10-09 01:39:00,59.5,43.4,28.38,SE,125,2.7,8.1,55,0.00,,---,0.00,VWS V14.01,2013-10-09 06:39:00,
2013-10-09 01:44:00,59.4,43.2,28.38,SE,127,4.0,8.1,55,0.00,,---,0.00,VWS V14.01,2013-10-09 06:44:00,
2013-10-09 01:49:00,59.4,43.2,28.38,SE,134,3.6,8.1,55,0.00,,---,0.00,VWS V14.01,2013-10-09 06:49:00,
2013-10-09 01:54:00,59.2,43.0,28.38,SE,139,3.1,8.1,55,0.00,,---,0.00,VWS V14.01,2013-10-09 06:54:00,
2013-10-09 01:59:00,59.2,43.5,28.38,SE,125,3.6,8.1,56,0.00,,---,0.00,VWS V14.01,2013-10-09 06:59:00,
2013-10-09 02:04:00,59.2,43.5,28.38,SE,128,5.4,5.4,56,0.00,,---,0.00,VWS V14.01,2013-10-09 07:04:00,
2013-10-09 02:09:00,59.2,43.5,28.38,SE,131,2.7,5.4,56,0.00,,---,0.00,VWS V14.01,2013-10-09 07:09:00,
2013-10-09 02:14:00,59.0,43.3,28.38,SE,127,3.6,5.4,56,0.00,,---,0.00,VWS V14.01,2013-10-09 07:14:00,
2013-10-09 02:19:00,58.8,43.6,28.38,SE,128,4.9,5.4,57,0.00,,---,0.00,VWS V14.01,2013-10-09 07:19:00,
2013-10-09 02:25:00,58.8,43.6,28.38,SSE,147,2.7,5.4,57,0.00,,---,0.00,VWS V14.01,2013-10-09 07:25:00,
2013-10-09 02:30:00,58.6,43.5,28.38,SE,134,6.3,6.3,57,0.00,,---,0.00,VWS V14.01,2013-10-09 07:30:00,
2013-10-09 02:35:00,58.6,43.5,28.38,SE,139,3.1,6.3,57,0.00,,---,0.00,VWS V14.01,2013-10-09 07:35:00,
2013-10-09 02:40:00,58.5,43.3,28.38,ESE,118,3.6,6.3,57,0.00,,---,0.00,VWS V14.01,2013-10-09 07:40:00,
2013-10-09 02:45:00,58.3,43.6,28.38,SE,138,3.6,6.3,58,0.00,,---,0.00,VWS V14.01,2013-10-09 07:45:00,
2013-10-09 02:50:00,58.1,43.4,28.38,SE,130,3.1,6.3,58,0.00,,---,0.00,VWS V14.01,2013-10-09 07:50:00,
2013-10-09 02:55:00,57.9,43.2,28.38,SE,143,3.6,6.3,58,0.00,,---,0.00,VWS V14.01,2013-10-09 07:55:00,
2013-10-09 03:00:00,57.9,43.7,28.38,ESE,112,3.6,3.6,59,0.00,,---,0.00,VWS V14.01,2013-10-09 08:00:00,
2013-10-09 03:05:00,57.7,43.5,28.38,SE,144,2.7,5.4,59,0.00,,---,0.00,VWS V14.01,2013-10-09 08:05:00,
2013-10-09 03:10:00,57.6,43.8,28.38,SE,129,2.7,5.4,60,0.00,,---,0.00,VWS V14.01,2013-10-09 08:10:00,
2013-10-09 03:16:00,57.6,43.8,28.38,ESE,120,3.6,5.4,60,0.00,,---,0.00,VWS V14.01,2013-10-09 08:16:00,
2013-10-09 03:21:00,57.6,43.8,28.38,SE,134,3.6,5.4,60,0.00,,---,0.00,VWS V14.01,2013-10-09 08:21:00,
2013-10-09 03:26:00,57.6,43.8,28.38,South,169,4.0,5.4,60,0.00,,---,0.00,VWS V14.01,2013-10-09 08:26:00,
2013-10-09 03:31:00,57.4,43.6,28.38,South,184,3.1,5.4,60,0.00,,---,0.00,VWS V14.01,2013-10-09 08:31:00,
2013-10-09 03:36:00,57.4,44.1,28.38,SE,133,3.6,5.4,61,0.00,,---,0.00,VWS V14.01,2013-10-09 08:36:00,
2013-10-09 03:41:00,57.2,43.9,28.38,SE,131,3.1,5.4,61,0.00,,---,0.00,VWS V14.01,2013-10-09 08:41:00,
2013-10-09 03:46:00,57.0,43.7,28.38,SE,132,2.7,5.4,61,0.00,,---,0.00,VWS V14.01,2013-10-09 08:46:00,
2013-10-09 03:51:00,56.8,44.0,28.38,East,82,2.7,5.4,62,0.00,,---,0.00,VWS V14.01,2013-10-09 08:51:00,
2013-10-09 03:56:00,56.8,44.0,28.38,SE,129,3.6,5.4,62,0.00,,---,0.00,VWS V14.01,2013-10-09 08:56:00,
2013-10-09 04:01:00,56.7,43.8,28.38,SSE,156,2.7,3.1,62,0.00,,---,0.00,VWS V14.01,2013-10-09 09:01:00,
2013-10-09 04:07:00,56.7,44.2,28.38,SE,136,0.0,4.0,63,0.00,,---,0.00,VWS V14.01,2013-10-09 09:07:00,
2013-10-09 04:12:00,56.5,44.0,28.38,SE,133,3.6,4.9,63,0.00,,---,0.00,VWS V14.01,2013-10-09 09:12:00,
2013-10-09 04:17:00,56.5,44.0,28.38,SSE,150,3.6,4.9,63,0.00,,---,0.00,VWS V14.01,2013-10-09 09:17:00,
2013-10-09 04:22:00,56.5,44.5,28.38,SE,145,3.1,4.9,64,0.00,,---,0.00,VWS V14.01,2013-10-09 09:22:00,
2013-10-09 04:27:00,56.5,44.9,28.38,SE,132,3.1,4.9,65,0.00,,---,0.00,VWS V14.01,2013-10-09 09:27:00,
2013-10-09 04:32:00,56.5,44.9,28.38,SSE,159,3.1,4.9,65,0.00,,---,0.00,VWS V14.01,2013-10-09 09:32:00,
2013-10-09 04:37:00,56.5,44.9,28.38,SE,144,2.2,4.9,65,0.00,,---,0.00,VWS V14.01,2013-10-09 09:37:00,
2013-10-09 04:42:00,56.5,44.9,28.38,SSE,150,0.0,5.4,65,0.00,,---,0.00,VWS V14.01,2013-10-09 09:42:00,
2013-10-09 04:47:00,56.5,44.9,28.38,SE,142,4.0,5.4,65,0.00,,---,0.00,VWS V14.01,2013-10-09 09:47:00,
2013-10-09 04:53:00,56.5,44.9,28.38,SE,142,0.0,5.4,65,0.00,,---,0.00,VWS V14.01,2013-10-09 09:53:00,
2013-10-09 04:58:00,56.3,44.7,28.38,SE,131,3.1,5.4,65,0.00,,---,0.00,VWS V14.01,2013-10-09 09:58:00,
2013-10-09 05:03:00,56.3,44.7,28.38,SE,145,3.6,3.6,65,0.00,,---,0.00,VWS V14.01,2013-10-09 10:03:00,
2013-10-09 05:08:00,56.1,44.5,28.38,South,177,3.1,4.0,65,0.00,,---,0.00,VWS V14.01,2013-10-09 10:08:00,
2013-10-09 05:13:00,56.1,44.5,28.38,SE,133,2.7,4.9,65,0.00,,---,0.00,VWS V14.01,2013-10-09 10:13:00,
2013-10-09 05:18:00,56.1,44.9,28.38,SSE,162,3.1,4.9,66,0.00,,---,0.00,VWS V14.01,2013-10-09 10:18:00,
2013-10-09 05:23:00,56.1,44.9,28.38,SSW,199,3.1,4.9,66,0.00,,---,0.00,VWS V14.01,2013-10-09 10:23:00,
2013-10-09 05:28:00,56.1,44.9,28.38,SE,126,3.1,4.9,66,0.00,,---,0.00,VWS V14.01,2013-10-09 10:28:00,
2013-10-09 05:33:00,56.3,45.1,28.38,SE,135,5.4,5.4,66,0.00,,---,0.00,VWS V14.01,2013-10-09 10:33:00,
2013-10-09 05:38:00,56.3,45.1,28.38,SE,127,2.7,5.4,66,0.00,,---,0.00,VWS V14.01,2013-10-09 10:38:00,
2013-10-09 05:44:00,56.3,45.1,28.38,SE,127,2.7,5.4,66,0.00,,---,0.00,VWS V14.01,2013-10-09 10:44:00,
2013-10-09 05:49:00,56.3,45.1,28.38,SSE,166,2.7,5.4,66,0.00,,---,0.00,VWS V14.01,2013-10-09 10:49:00,
2013-10-09 05:54:00,56.3,45.1,28.38,South,190,3.6,5.4,66,0.00,,---,0.00,VWS V14.01,2013-10-09 10:54:00,
2013-10-09 05:59:00,56.3,45.1,28.38,SSE,160,2.7,5.4,66,0.00,,---,0.00,VWS V14.01,2013-10-09 10:59:00,
2013-10-09 06:04:00,56.3,45.1,28.38,SE,124,4.0,4.0,66,0.00,,---,0.00,VWS V14.01,2013-10-09 11:04:00,
2013-10-09 06:09:00,56.3,45.1,28.38,SE,124,4.0,5.8,66,0.00,,---,0.00,VWS V14.01,2013-10-09 11:09:00,
2013-10-09 06:14:00,56.3,45.1,28.38,South,187,4.9,5.8,66,0.00,,---,0.00,VWS V14.01,2013-10-09 11:14:00,
2013-10-09 06:19:00,56.1,44.9,28.38,SE,136,3.6,5.8,66,0.00,,---,0.00,VWS V14.01,2013-10-09 11:19:00,
2013-10-09 06:24:00,56.1,45.3,28.38,SE,126,3.6,5.8,67,0.00,,---,0.00,VWS V14.01,2013-10-09 11:24:00,
2013-10-09 06:29:00,56.1,45.3,28.38,SE,138,2.7,5.8,67,0.00,,---,0.00,VWS V14.01,2013-10-09 11:29:00,
2013-10-09 06:35:00,56.1,45.3,28.38,SE,144,3.6,5.8,67,0.00,,---,0.00,VWS V14.01,2013-10-09 11:35:00,
2013-10-09 06:40:00,56.1,45.3,28.38,ESE,113,2.7,5.8,67,0.00,,---,0.00,VWS V14.01,2013-10-09 11:40:00,
2013-10-09 06:45:00,55.9,45.2,28.38,South,180,2.2,5.8,67,0.00,,---,0.00,VWS V14.01,2013-10-09 11:45:00,
2013-10-09 06:50:00,56.1,45.3,28.38,SE,144,2.7,5.8,67,0.00,,---,0.00,VWS V14.01,2013-10-09 11:50:00,
2013-10-09 06:55:00,56.1,45.3,28.38,SE,124,4.0,5.8,67,0.00,,---,0.00,VWS V14.01,2013-10-09 11:55:00,
2013-10-09 07:00:00,56.3,45.5,28.38,SE,128,3.6,3.6,67,0.00,,---,0.00,VWS V14.01,2013-10-09 12:00:00,
2013-10-09 07:06:00,56.3,45.5,28.38,SE,139,3.1,5.8,67,0.00,,---,0.00,VWS V14.01,2013-10-09 12:06:00,
2013-10-09 07:09:00,56.3,45.5,28.38,SSW,194,2.2,5.8,67,0.00,,---,0.00,VWS V14.01,2013-10-09 12:09:00,
2013-10-09 07:14:00,56.3,45.5,28.38,South,176,2.2,5.8,67,0.00,,---,0.00,VWS V14.01,2013-10-09 12:14:00,
2013-10-09 07:19:00,56.3,45.5,28.38,SSE,163,3.6,5.8,67,0.00,,---,0.00,VWS V14.01,2013-10-09 12:19:00,
2013-10-09 07:24:00,56.3,45.5,28.38,SSE,155,3.6,5.8,67,0.00,,---,0.00,VWS V14.01,2013-10-09 12:24:00,
2013-10-09 07:29:00,56.1,45.3,28.38,SE,135,3.1,5.8,67,0.00,,---,0.00,VWS V14.01,2013-10-09 12:29:00,
2013-10-09 07:34:00,56.1,45.3,28.38,SE,133,2.7,5.8,67,0.00,,---,0.00,VWS V14.01,2013-10-09 12:34:00,
2013-10-09 07:40:00,56.1,45.3,28.38,South,184,4.0,5.8,67,0.00,,---,0.00,VWS V14.01,2013-10-09 12:40:00,
2013-10-09 07:45:00,56.1,45.7,28.38,ESE,120,2.2,5.8,68,0.00,,---,0.00,VWS V14.01,2013-10-09 12:45:00,
2013-10-09 07:50:00,56.1,45.7,28.38,ESE,117,2.7,5.8,68,0.00,,---,0.00,VWS V14.01,2013-10-09 12:50:00,
2013-10-09 07:55:00,56.3,45.9,28.38,East,101,3.6,7.2,68,0.00,,---,0.00,VWS V14.01,2013-10-09 12:55:00,
2013-10-09 08:00:00,56.5,46.1,28.38,SSW,207,2.7,3.6,68,0.00,,---,0.00,VWS V14.01,2013-10-09 13:00:00,
2013-10-09 08:05:00,56.7,46.2,28.38,SE,139,3.1,4.9,68,0.00,,---,0.00,VWS V14.01,2013-10-09 13:05:00,
2013-10-09 08:10:00,57.0,47.0,28.38,South,175,3.6,7.6,69,0.00,,---,0.00,VWS V14.01,2013-10-09 13:10:00,
2013-10-09 08:15:00,57.7,47.3,28.38,South,182,3.6,7.6,68,0.00,,---,0.00,VWS V14.01,2013-10-09 13:15:00,
2013-10-09 08:20:00,58.3,47.0,28.38,SE,127,3.6,7.6,66,0.00,,---,0.00,VWS V14.01,2013-10-09 13:20:00,
2013-10-09 08:25:00,58.8,47.1,28.38,SE,135,5.8,8.1,65,0.00,,---,0.00,VWS V14.01,2013-10-09 13:25:00,
2013-10-09 08:31:00,59.2,46.6,28.38,SW,235,5.4,8.1,63,0.00,,---,0.00,VWS V14.01,2013-10-09 13:31:00,
2013-10-09 08:36:00,59.7,46.7,28.38,SE,133,3.6,8.7,62,0.00,,---,0.00,VWS V14.01,2013-10-09 13:36:00,
2013-10-09 08:41:00,60.1,46.6,28.38,ESE,120,5.4,8.7,61,0.00,,---,0.00,VWS V14.01,2013-10-09 13:41:00,
2013-10-09 08:46:00,60.4,46.5,28.38,SSE,147,2.7,8.7,60,0.00,,---,0.00,VWS V14.01,2013-10-09 13:46:00,
2013-10-09 08:51:00,60.6,46.2,28.38,SE,145,3.6,8.7,59,0.00,,---,0.00,VWS V14.01,2013-10-09 13:51:00,
2013-10-09 08:56:00,61.0,46.1,28.38,SSE,158,3.6,10.1,58,0.00,,---,0.00,VWS V14.01,2013-10-09 13:56:00,
2013-10-09 09:01:00,61.3,46.0,28.38,ESE,118,2.7,4.0,57,0.00,,---,0.00,VWS V14.01,2013-10-09 14:01:00,
2013-10-09 09:06:00,61.5,45.7,28.38,SSE,155,6.3,8.3,56,0.00,,---,0.00,VWS V14.01,2013-10-09 14:06:00,
2013-10-09 09:11:00,61.9,46.0,28.38,SSE,155,10.5,10.5,56,0.00,,---,0.00,VWS V14.01,2013-10-09 14:11:00,
2013-10-09 09:17:00,62.1,45.7,28.38,SE,128,3.1,10.5,55,0.00,,---,0.00,VWS V14.01,2013-10-09 14:17:00,
2013-10-09 09:22:00,62.2,45.4,28.38,SE,124,8.3,10.5,54,0.00,,---,0.00,VWS V14.01,2013-10-09 14:22:00,
2013-10-09 09:27:00,62.4,45.6,28.38,NE,44,4.0,10.5,54,0.00,,---,0.00,VWS V14.01,2013-10-09 14:27:00,
2013-10-09 09:32:00,62.8,45.4,28.38,SSE,164,6.3,10.5,53,0.00,,---,0.00,VWS V14.01,2013-10-09 14:32:00,
2013-10-09 09:37:00,63.1,45.2,28.38,ENE,69,3.1,10.5,52,0.00,,---,0.00,VWS V14.01,2013-10-09 14:37:00,
2013-10-09 09:42:00,63.3,45.4,28.41,East,85,4.0,10.5,52,0.00,,---,0.00,VWS V14.01,2013-10-09 14:42:00,
2013-10-09 09:47:00,63.7,45.2,28.41,ESE,104,3.1,11.0,51,0.00,,---,0.00,VWS V14.01,2013-10-09 14:47:00,
2013-10-09 09:52:00,63.9,45.4,28.41,SE,141,5.4,11.0,51,0.00,,---,0.00,VWS V14.01,2013-10-09 14:52:00,
2013-10-09 09:57:00,64.2,45.7,28.41,SSE,155,5.4,11.0,51,0.00,,---,0.00,VWS V14.01,2013-10-09 14:57:00,
2013-10-09 10:03:00,64.6,45.0,28.41,SSE,150,4.9,9.6,49,0.00,,---,0.00,VWS V14.01,2013-10-09 15:03:00,
2013-10-09 10:08:00,64.8,45.2,28.41,ESE,110,3.1,9.6,49,0.00,,---,0.00,VWS V14.01,2013-10-09 15:08:00,
2013-10-09 10:13:00,65.1,45.0,28.41,SSE,150,6.3,9.6,48,0.00,,---,0.00,VWS V14.01,2013-10-09 15:13:00,
2013-10-09 10:18:00,65.5,45.3,28.41,West,273,4.0,9.6,48,0.00,,---,0.00,VWS V14.01,2013-10-09 15:18:00,
2013-10-09 10:23:00,65.8,45.6,28.41,ESE,102,5.4,9.6,48,0.00,,---,0.00,VWS V14.01,2013-10-09 15:23:00,
2013-10-09 10:28:00,66.2,44.8,28.41,SSE,159,6.3,9.6,46,0.00,,---,0.00,VWS V14.01,2013-10-09 15:28:00,
2013-10-09 10:33:00,66.4,45.0,28.41,SSE,151,8.1,10.5,46,0.00,,---,0.00,VWS V14.01,2013-10-09 15:33:00,
2013-10-09 10:38:00,66.7,45.3,28.41,SSW,208,4.0,10.5,46,0.00,,---,0.00,VWS V14.01,2013-10-09 15:38:00,
2013-10-09 10:43:00,67.3,45.2,28.41,SE,133,5.8,10.5,45,0.00,,---,0.00,VWS V14.01,2013-10-09 15:43:00,
2013-10-09 10:48:00,68.0,44.7,28.41,South,170,3.1,10.5,43,0.00,,---,0.00,VWS V14.01,2013-10-09 15:48:00,
2013-10-09 10:54:00,68.7,45.3,28.41,SE,125,5.8,10.5,43,0.00,,---,0.00,VWS V14.01,2013-10-09 15:54:00,
2013-10-09 10:59:00,69.3,45.8,28.41,SE,130,5.8,10.5,43,0.00,,---,0.00,VWS V14.01,2013-10-09 15:59:00,
2013-10-09 11:04:00,69.6,45.5,28.41,SE,144,5.4,10.1,42,0.00,,---,0.00,VWS V14.01,2013-10-09 16:04:00,
2013-10-09 11:09:00,70.3,44.9,28.41,SSW,207,6.3,10.1,40,0.00,,---,0.00,VWS V14.01,2013-10-09 16:09:00,
2013-10-09 11:14:00,70.7,45.2,28.41,ESE,109,4.0,10.1,40,0.00,,---,0.00,VWS V14.01,2013-10-09 16:14:00,
2013-10-09 11:19:00,71.1,45.5,28.41,North,5,3.6,10.1,40,0.00,,---,0.00,VWS V14.01,2013-10-09 16:19:00,
2013-10-09 11:24:00,71.6,44.7,28.41,SE,127,7.2,10.1,38,0.00,,---,0.00,VWS V14.01,2013-10-09 16:24:00,
2013-10-09 11:29:00,72.1,44.5,28.41,ESE,102,3.6,12.3,37,0.00,,---,0.00,VWS V14.01,2013-10-09 16:29:00,
2013-10-09 11:34:00,72.5,44.8,28.41,ESE,122,3.1,12.3,37,0.00,,---,0.00,VWS V14.01,2013-10-09 16:34:00,
2013-10-09 11:40:00,73.0,44.5,28.41,SE,146,5.8,12.3,36,0.00,,---,0.00,VWS V14.01,2013-10-09 16:40:00,
2013-10-09 11:45:00,73.4,44.1,28.41,SE,142,5.4,13.2,35,0.00,,---,0.00,VWS V14.01,2013-10-09 16:45:00,
2013-10-09 11:50:00,73.8,44.4,28.41,SE,140,5.4,13.2,35,0.00,,---,0.00,VWS V14.01,2013-10-09 16:50:00,
2013-10-09 11:55:00,74.3,44.9,28.41,ESE,109,6.3,13.2,35,0.00,,---,0.00,VWS V14.01,2013-10-09 16:55:00,
2013-10-09 12:00:00,75.0,44.8,28.41,SE,136,2.7,2.7,34,0.00,,---,0.00,VWS V14.01,2013-10-09 17:00:00,
2013-10-09 12:05:00,75.4,44.3,28.41,SE,131,5.8,8.7,33,0.00,,---,0.00,VWS V14.01,2013-10-09 17:05:00,
2013-10-09 12:10:00,75.7,44.6,28.41,ESE,119,5.4,8.7,33,0.00,,---,0.00,VWS V14.01,2013-10-09 17:10:00,
2013-10-09 12:15:00,75.9,44.8,28.41,SSE,162,4.0,11.0,33,0.00,,---,0.00,VWS V14.01,2013-10-09 17:15:00,
2013-10-09 12:20:00,76.3,44.3,28.41,SE,137,5.8,11.0,32,0.00,,---,0.00,VWS V14.01,2013-10-09 17:20:00,
2013-10-09 12:26:00,76.6,44.6,28.41,ESE,105,5.8,11.0,32,0.00,,---,0.00,VWS V14.01,2013-10-09 17:26:00,
2013-10-09 12:31:00,76.8,44.8,28.41,ESE,105,4.0,11.0,32,0.00,,---,0.00,VWS V14.01,2013-10-09 17:31:00,
2013-10-09 12:36:00,77.2,44.2,28.41,ESE,120,3.1,11.0,31,0.00,,---,0.00,VWS V14.01,2013-10-09 17:36:00,
2013-10-09 12:41:00,77.5,44.5,28.41,ESE,122,3.1,11.0,31,0.00,,---,0.00,VWS V14.01,2013-10-09 17:41:00,
2013-10-09 12:46:00,77.9,44.9,28.41,SSW,196,5.8,11.0,31,0.00,,---,0.00,VWS V14.01,2013-10-09 17:46:00,
2013-10-09 12:51:00,78.3,45.2,28.41,SSE,152,3.1,11.0,31,0.00,,---,0.00,VWS V14.01,2013-10-09 17:51:00,
2013-10-09 12:56:00,79.0,44.9,28.38,South,185,4.0,11.0,30,0.00,,---,0.00,VWS V14.01,2013-10-09 17:56:00,
2013-10-09 13:01:00,79.5,45.4,28.38,SE,126,2.7,4.9,30,0.00,,---,0.00,VWS V14.01,2013-10-09 18:01:00,
2013-10-09 13:06:00,79.7,45.6,28.38,SSE,164,4.9,8.1,30,0.00,,---,0.00,VWS V14.01,2013-10-09 18:06:00,
2013-10-09 13:11:00,80.1,45.9,28.38,ESE,119,2.7,8.3,30,0.00,,---,0.00,VWS V14.01,2013-10-09 18:11:00,
2013-10-09 13:17:00,80.2,46.0,28.38,South,179,2.7,8.3,30,0.00,,---,0.00,VWS V14.01,2013-10-09 18:17:00,
2013-10-09 13:22:00,80.2,45.1,28.38,SW,230,3.1,9.6,29,0.00,,---,0.00,VWS V14.01,2013-10-09 18:22:00,
2013-10-09 13:27:00,80.6,44.5,28.38,South,186,4.9,9.6,28,0.00,,---,0.00,VWS V14.01,2013-10-09 18:27:00,
2013-10-09 13:32:00,80.8,44.7,28.38,SSE,148,6.3,9.6,28,0.00,,---,0.00,VWS V14.01,2013-10-09 18:32:00,
2013-10-09 13:37:00,81.0,43.9,28.38,SE,130,12.8,12.8,27,0.00,,---,0.00,VWS V14.01,2013-10-09 18:37:00,
2013-10-09 13:42:00,81.1,44.0,28.38,SE,140,4.9,12.8,27,0.00,,---,0.00,VWS V14.01,2013-10-09 18:42:00,
2013-10-09 13:47:00,81.3,44.2,28.38,ESE,119,3.6,12.8,27,0.00,,---,0.00,VWS V14.01,2013-10-09 18:47:00,
2013-10-09 13:52:00,81.7,43.5,28.38,SSE,158,8.1,12.8,26,0.00,,---,0.00,VWS V14.01,2013-10-09 18:52:00,
2013-10-09 13:57:00,81.9,43.7,28.35,SSE,148,7.6,12.8,26,0.00,,---,0.00,VWS V14.01,2013-10-09 18:57:00,
2013-10-09 14:02:00,82.0,42.8,28.35,SSE,156,3.6,8.3,25,0.00,,---,0.00,VWS V14.01,2013-10-09 19:02:00,
2013-10-09 14:08:00,82.2,42.9,28.35,SE,137,7.6,10.1,25,0.00,,---,0.00,VWS V14.01,2013-10-09 19:08:00,
2013-10-09 14:13:00,82.4,43.1,28.35,SE,126,8.3,10.1,25,0.00,,---,0.00,VWS V14.01,2013-10-09 19:13:00,
2013-10-09 14:18:00,82.6,42.2,28.35,SE,134,4.9,10.1,24,0.00,,---,0.00,VWS V14.01,2013-10-09 19:18:00,
2013-10-09 14:23:00,82.9,42.5,28.35,East,79,5.4,10.1,24,0.00,,---,0.00,VWS V14.01,2013-10-09 19:23:00,
2013-10-09 14:28:00,83.3,42.8,28.35,SSE,152,3.6,10.1,24,0.00,,---,0.00,VWS V14.01,2013-10-09 19:28:00,
2013-10-09 14:33:00,83.7,43.1,28.35,SE,127,4.0,10.1,24,0.00,,---,0.00,VWS V14.01,2013-10-09 19:33:00,
2013-10-09 14:38:00,83.7,42.0,28.35,ESE,117,5.4,10.1,23,0.00,,---,0.00,VWS V14.01,2013-10-09 19:38:00,
2013-10-09 14:43:00,83.8,42.1,28.35,ESE,115,6.3,10.1,23,0.00,,---,0.00,VWS V14.01,2013-10-09 19:43:00,
2013-10-09 14:48:00,83.8,42.1,28.35,SSE,150,8.3,10.1,23,0.00,,---,0.00,VWS V14.01,2013-10-09 19:48:00,
2013-10-09 14:54:00,83.8,42.1,28.35,SE,133,3.1,10.1,23,0.00,,---,0.00,VWS V14.01,2013-10-09 19:54:00,
2013-10-09 14:59:00,84.0,42.3,28.35,ESE,121,9.2,10.1,23,0.00,,---,0.00,VWS V14.01,2013-10-09 19:59:00,
2013-10-09 15:04:00,84.0,42.3,28.35,SE,124,8.1,8.7,23,0.00,,---,0.00,VWS V14.01,2013-10-09 20:04:00,
2013-10-09 15:09:00,84.0,42.3,28.35,ESE,108,6.3,8.7,23,0.00,,---,0.00,VWS V14.01,2013-10-09 20:09:00,
2013-10-09 15:14:00,83.8,42.1,28.35,SSE,161,5.4,8.7,23,0.00,,---,0.00,VWS V14.01,2013-10-09 20:14:00,
2013-10-09 15:19:00,84.2,41.3,28.35,South,187,5.8,8.7,22,0.00,,---,0.00,VWS V14.01,2013-10-09 20:19:00,
2013-10-09 15:24:00,84.0,41.1,28.35,SE,132,6.3,9.6,22,0.00,,---,0.00,VWS V14.01,2013-10-09 20:24:00,
2013-10-09 15:29:00,83.8,42.1,28.35,South,184,6.3,10.5,23,0.00,,---,0.00,VWS V14.01,2013-10-09 20:29:00,
2013-10-09 15:34:00,84.0,42.3,28.35,SE,140,5.4,10.5,23,0.00,,---,0.00,VWS V14.01,2013-10-09 20:34:00,
2013-10-09 15:39:00,84.2,41.3,28.35,ESE,118,3.1,11.0,22,0.00,,---,0.00,VWS V14.01,2013-10-09 20:39:00,
2013-10-09 15:45:00,83.8,41.0,28.35,SSE,157,4.0,11.0,22,0.00,,---,0.00,VWS V14.01,2013-10-09 20:45:00,
2013-10-09 15:50:00,83.7,40.8,28.35,SE,135,8.1,11.0,22,0.00,,---,0.00,VWS V14.01,2013-10-09 20:50:00,
2013-10-09 15:55:00,83.7,40.8,28.35,SE,133,5.4,12.3,22,0.00,,---,0.00,VWS V14.01,2013-10-09 20:55:00,
2013-10-09 16:00:00,83.7,40.8,28.35,SSE,149,4.9,4.9,22,0.00,,---,0.00,VWS V14.01,2013-10-09 21:00:00,
2013-10-09 16:05:00,83.7,40.8,28.35,SE,124,6.3,8.3,22,0.00,,---,0.00,VWS V14.01,2013-10-09 21:05:00,
2013-10-09 16:10:00,83.5,40.7,28.32,ESE,111,3.1,12.8,22,0.00,,---,0.00,VWS V14.01,2013-10-09 21:10:00,
2013-10-09 16:15:00,83.7,40.8,28.32,SSE,155,5.8,12.8,22,0.00,,---,0.00,VWS V14.01,2013-10-09 21:15:00,
2013-10-09 16:20:00,83.8,41.0,28.32,ESE,109,4.9,12.8,22,0.00,,---,0.00,VWS V14.01,2013-10-09 21:20:00,
2013-10-09 16:25:00,83.8,41.0,28.35,SE,138,4.0,12.8,22,0.00,,---,0.00,VWS V14.01,2013-10-09 21:25:00,
2013-10-09 16:31:00,83.7,39.6,28.35,ENE,64,5.8,12.8,21,0.00,,---,0.00,VWS V14.01,2013-10-09 21:31:00,
2013-10-09 16:36:00,83.7,40.8,28.35,ESE,123,3.6,12.8,22,0.00,,---,0.00,VWS V14.01,2013-10-09 21:36:00,
2013-10-09 16:41:00,83.5,40.7,28.32,South,169,8.1,12.8,22,0.00,,---,0.00,VWS V14.01,2013-10-09 21:41:00,
2013-10-09 16:46:00,83.3,40.5,28.32,SSW,196,5.8,12.8,22,0.00,,---,0.00,VWS V14.01,2013-10-09 21:46:00,
2013-10-09 16:51:00,83.1,40.4,28.32,SW,223,4.0,12.8,22,0.00,,---,0.00,VWS V14.01,2013-10-09 21:51:00,
2013-10-09 16:56:00,83.1,40.4,28.32,ESE,117,5.4,12.8,22,0.00,,---,0.00,VWS V14.01,2013-10-09 21:56:00,
2013-10-09 17:01:00,82.9,40.2,28.32,SE,125,5.8,8.3,22,0.00,,---,0.00,VWS V14.01,2013-10-09 22:01:00,
2013-10-09 17:06:00,82.8,40.1,28.32,SE,135,2.7,8.3,22,0.00,,---,0.00,VWS V14.01,2013-10-09 22:06:00,
2013-10-09 17:11:00,82.8,40.1,28.35,SSE,159,2.7,8.7,22,0.00,,---,0.00,VWS V14.01,2013-10-09 22:11:00,
2013-10-09 17:17:00,82.8,40.1,28.35,SE,124,5.4,8.7,22,0.00,,---,0.00,VWS V14.01,2013-10-09 22:17:00,
2013-10-09 17:22:00,82.6,39.9,28.35,SE,126,5.4,11.9,22,0.00,,---,0.00,VWS V14.01,2013-10-09 22:22:00,
2013-10-09 17:27:00,82.2,39.6,28.32,SE,139,5.8,11.9,22,0.00,,---,0.00,VWS V14.01,2013-10-09 22:27:00,
2013-10-09 17:32:00,82.0,40.6,28.32,South,170,5.8,11.9,23,0.00,,---,0.00,VWS V14.01,2013-10-09 22:32:00,
2013-10-09 17:37:00,81.9,40.5,28.32,ESE,123,3.6,11.9,23,0.00,,---,0.00,VWS V14.01,2013-10-09 22:37:00,
2013-10-09 17:42:00,81.7,40.3,28.32,ESE,111,5.8,11.9,23,0.00,,---,0.00,VWS V14.01,2013-10-09 22:42:00,
2013-10-09 17:47:00,81.3,40.0,28.32,ESE,113,4.9,11.9,23,0.00,,---,0.00,VWS V14.01,2013-10-09 22:47:00,
2013-10-09 17:52:00,80.8,39.6,28.32,SSE,158,5.8,11.9,23,0.00,,---,0.00,VWS V14.01,2013-10-09 22:52:00,
2013-10-09 17:57:00,80.2,40.2,28.32,SSE,159,3.1,11.9,24,0.00,,---,0.00,VWS V14.01,2013-10-09 22:57:00,
2013-10-09 18:02:00,79.7,39.8,28.32,ESE,106,5.4,6.3,24,0.00,,---,0.00,VWS V14.01,2013-10-09 23:02:00,
2013-10-09 18:08:00,79.2,39.3,28.32,South,175,5.8,8.1,24,0.00,,---,0.00,VWS V14.01,2013-10-09 23:08:00,
2013-10-09 18:13:00,78.8,40.0,28.32,SE,134,3.1,11.0,25,0.00,,---,0.00,VWS V14.01,2013-10-09 23:13:00,
2013-10-09 18:18:00,78.4,39.7,28.32,SSE,159,2.7,11.0,25,0.00,,---,0.00,VWS V14.01,2013-10-09 23:18:00,
2013-10-09 18:23:00,78.1,40.4,28.32,ESE,107,2.7,11.0,26,0.00,,---,0.00,VWS V14.01,2013-10-09 23:23:00,
2013-10-09 18:28:00,77.9,40.3,28.32,SSW,203,3.1,11.0,26,0.00,,---,0.00,VWS V14.01,2013-10-09 23:28:00,
2013-10-09 18:33:00,77.5,40.0,28.32,South,191,5.8,11.0,26,0.00,,---,0.00,VWS V14.01,2013-10-09 23:33:00,
2013-10-09 18:38:00,77.2,40.7,28.32,SSE,154,2.7,11.0,27,0.00,,---,0.00,VWS V14.01,2013-10-09 23:38:00,
2013-10-09 18:43:00,76.8,41.3,28.32,SE,145,6.3,11.0,28,0.00,,---,0.00,VWS V14.01,2013-10-09 23:43:00,
2013-10-09 18:48:00,76.3,41.7,28.32,SE,134,3.1,11.0,29,0.00,,---,0.00,VWS V14.01,2013-10-09 23:48:00,
2013-10-09 18:54:00,75.9,42.3,28.32,SE,137,4.9,11.0,30,0.00,,---,0.00,VWS V14.01,2013-10-09 23:54:00,
2013-10-09 18:59:00,75.6,42.8,28.32,SE,127,4.0,11.0,31,0.00,,---,0.00,VWS V14.01,2013-10-09 23:59:00,
2013-10-09 19:04:00,75.2,42.5,28.32,SE,144,2.7,8.1,31,0.00,,---,0.00,VWS V14.01,2013-10-10 00:04:00,
2013-10-09 19:09:00,75.0,42.4,28.32,SSE,167,3.1,8.1,31,0.00,,---,0.00,VWS V14.01,2013-10-10 00:09:00,
2013-10-09 19:14:00,74.5,42.7,28.32,ESE,106,2.7,8.1,32,0.00,,---,0.00,VWS V14.01,2013-10-10 00:14:00,
2013-10-09 19:19:00,74.1,42.4,28.32,South,172,2.2,8.1,32,0.00,,---,0.00,VWS V14.01,2013-10-10 00:19:00,
2013-10-09 19:24:00,73.6,41.9,28.35,SE,139,5.8,8.1,32,0.00,,---,0.00,VWS V14.01,2013-10-10 00:24:00,
2013-10-09 19:29:00,73.2,43.2,28.35,SSE,156,3.1,8.7,34,0.00,,---,0.00,VWS V14.01,2013-10-10 00:29:00,
2013-10-09 19:34:00,72.7,43.5,28.35,SE,131,7.6,8.7,35,0.00,,---,0.00,VWS V14.01,2013-10-10 00:34:00,
2013-10-09 19:40:00,72.3,43.9,28.35,SE,131,3.1,8.7,36,0.00,,---,0.00,VWS V14.01,2013-10-10 00:40:00,
2013-10-09 19:45:00,72.0,44.3,28.35,South,173,5.8,8.7,37,0.00,,---,0.00,VWS V14.01,2013-10-10 00:45:00,
2013-10-09 19:50:00,71.8,44.8,28.35,SE,142,4.0,8.7,38,0.00,,---,0.00,VWS V14.01,2013-10-10 00:50:00,
2013-10-09 19:55:00,71.6,44.7,28.35,SE,146,4.0,8.7,38,0.00,,---,0.00,VWS V14.01,2013-10-10 00:55:00,
2013-10-09 20:00:00,71.2,45.7,28.35,ESE,113,5.8,5.8,40,0.00,,---,0.00,VWS V14.01,2013-10-10 01:00:00,
2013-10-09 20:05:00,71.1,45.5,28.35,SSE,153,2.7,6.7,40,0.00,,---,0.00,VWS V14.01,2013-10-10 01:05:00,
2013-10-09 20:11:00,70.9,46.0,28.35,SE,143,3.1,7.2,41,0.00,,---,0.00,VWS V14.01,2013-10-10 01:11:00,
2013-10-09 20:16:00,70.7,46.5,28.35,SSE,163,3.1,7.2,42,0.00,,---,0.00,VWS V14.01,2013-10-10 01:16:00,
2013-10-09 20:21:00,70.5,46.3,28.35,South,189,3.1,10.5,42,0.00,,---,0.00,VWS V14.01,2013-10-10 01:21:00,
2013-10-09 20:26:00,70.5,46.3,28.35,SE,140,4.0,10.5,42,0.00,,---,0.00,VWS V14.01,2013-10-10 01:26:00,
2013-10-09 20:31:00,70.3,46.2,28.35,SE,131,2.7,10.5,42,0.00,,---,0.00,VWS V14.01,2013-10-10 01:31:00,
2013-10-09 20:36:00,70.3,46.2,28.35,SE,145,3.1,10.5,42,0.00,,---,0.00,VWS V14.01,2013-10-10 01:36:00,
2013-10-09 20:41:00,70.3,46.2,28.35,ESE,116,2.7,10.5,42,0.00,,---,0.00,VWS V14.01,2013-10-10 01:41:00,
2013-10-09 20:47:00,70.2,46.0,28.35,SE,141,3.1,10.5,42,0.00,,---,0.00,VWS V14.01,2013-10-10 01:47:00,
2013-10-09 20:52:00,70.0,46.5,28.35,SE,124,4.9,10.5,43,0.00,,---,0.00,VWS V14.01,2013-10-10 01:52:00,
2013-10-09 20:57:00,69.8,46.3,28.38,SSE,155,4.0,10.5,43,0.00,,---,0.00,VWS V14.01,2013-10-10 01:57:00,
2013-10-09 21:02:00,69.6,46.8,28.38,SSE,156,4.9,10.5,44,0.00,,---,0.00,VWS V14.01,2013-10-10 02:02:00,
2013-10-09 21:07:00,69.4,46.6,28.38,SSE,168,3.1,10.5,44,0.00,,---,0.00,VWS V14.01,2013-10-10 02:07:00,
2013-10-09 21:12:00,69.3,46.4,28.38,SE,134,4.0,10.5,44,0.00,,---,0.00,VWS V14.01,2013-10-10 02:12:00,
2013-10-09 21:17:00,69.1,46.9,28.38,SSE,159,3.1,10.5,45,0.00,,---,0.00,VWS V14.01,2013-10-10 02:17:00,
2013-10-09 21:22:00,69.1,46.9,28.38,South,190,3.6,10.5,45,0.00,,---,0.00,VWS V14.01,2013-10-10 02:22:00,
2013-10-09 21:27:00,68.9,46.7,28.38,SSE,166,2.2,10.5,45,0.00,,---,0.00,VWS V14.01,2013-10-10 02:27:00,
2013-10-09 21:33:00,68.7,47.1,28.38,South,180,2.2,10.5,46,0.00,,---,0.00,VWS V14.01,2013-10-10 02:33:00,
2013-10-09 21:38:00,68.5,47.0,28.38,South,182,0.0,10.5,46,0.00,,---,0.00,VWS V14.01,2013-10-10 02:38:00,
2013-10-09 21:43:00,68.2,46.6,28.38,ESE,110,2.2,10.5,46,0.00,,---,0.00,VWS V14.01,2013-10-10 02:43:00,
2013-10-09 21:48:00,68.0,47.0,28.38,SSE,154,3.6,10.5,47,0.00,,---,0.00,VWS V14.01,2013-10-10 02:48:00,
2013-10-09 21:53:00,67.8,47.4,28.38,South,169,6.3,10.5,48,0.00,,---,0.00,VWS V14.01,2013-10-10 02:53:00,
2013-10-09 21:58:00,67.6,47.8,28.38,SSE,156,3.1,10.5,49,0.00,,---,0.00,VWS V14.01,2013-10-10 02:58:00,
2013-10-09 22:03:00,67.5,47.7,28.38,SSE,158,2.7,6.3,49,0.00,,---,0.00,VWS V14.01,2013-10-10 03:03:00,
2013-10-09 22:08:00,67.5,47.7,28.38,SE,138,3.1,6.7,49,0.00,,---,0.00,VWS V14.01,2013-10-10 03:08:00,
2013-10-09 22:13:00,67.3,48.0,28.38,SSE,155,5.4,6.7,50,0.00,,---,0.00,VWS V14.01,2013-10-10 03:13:00,
2013-10-09 22:18:00,67.3,48.0,28.38,SE,134,4.9,6.7,50,0.00,,---,0.00,VWS V14.01,2013-10-10 03:18:00,
2013-10-09 22:24:00,67.1,48.4,28.38,SSE,166,3.1,6.7,51,0.00,,---,0.00,VWS V14.01,2013-10-10 03:24:00,
2013-10-09 22:29:00,66.9,48.2,28.38,SE,145,4.0,6.7,51,0.00,,---,0.00,VWS V14.01,2013-10-10 03:29:00,
2013-10-09 22:34:00,66.7,48.1,28.38,SSE,147,4.9,7.2,51,0.00,,---,0.00,VWS V14.01,2013-10-10 03:34:00,
2013-10-09 22:39:00,66.6,48.4,28.41,South,176,0.0,7.2,52,0.00,,---,0.00,VWS V14.01,2013-10-10 03:39:00,
2013-10-09 22:44:00,66.4,48.8,28.41,ESE,119,4.0,7.2,53,0.00,,---,0.00,VWS V14.01,2013-10-10 03:44:00,
2013-10-09 22:49:00,66.2,48.6,28.41,South,181,3.6,7.2,53,0.00,,---,0.00,VWS V14.01,2013-10-10 03:49:00,
2013-10-09 22:54:00,66.0,48.9,28.38,SSE,161,3.1,7.2,54,0.00,,---,0.00,VWS V14.01,2013-10-10 03:54:00,
2013-10-09 22:59:00,65.8,49.2,28.38,South,175,4.0,7.2,55,0.00,,---,0.00,VWS V14.01,2013-10-10 03:59:00,
2013-10-09 23:01:00,65.8,49.2,28.38,SE,133,3.1,3.6,55,0.00,,---,0.00,VWS V14.01,2013-10-10 04:01:00,
2013-10-09 23:02:00,65.8,49.2,28.38,SE,146,3.1,5.8,55,0.00,,---,0.00,VWS V14.01,2013-10-10 04:02:00,
2013-10-09 23:03:00,65.8,49.2,28.38,South,175,4.0,5.8,55,0.00,,---,0.00,VWS V14.01,2013-10-10 04:03:00,
2013-10-09 23:04:00,65.8,49.2,28.38,South,176,4.0,5.8,55,0.00,,---,0.00,VWS V14.01,2013-10-10 04:04:00,
2013-10-09 23:09:00,65.7,49.6,28.41,SSE,155,2.7,5.8,56,0.00,,---,0.00,VWS V14.01,2013-10-10 04:09:00,
2013-10-09 23:14:00,65.5,49.4,28.41,ESE,123,3.6,5.8,56,0.00,,---,0.00,VWS V14.01,2013-10-10 04:14:00,
2013-10-09 23:19:00,65.3,49.7,28.41,SE,136,2.7,6.3,57,0.00,,---,0.00,VWS V14.01,2013-10-10 04:19:00,
2013-10-09 23:24:00,65.1,50.0,28.41,SE,140,3.1,6.3,58,0.00,,---,0.00,VWS V14.01,2013-10-10 04:24:00,
2013-10-09 23:29:00,64.9,49.8,28.41,SE,144,2.7,6.3,58,0.00,,---,0.00,VWS V14.01,2013-10-10 04:29:00,
2013-10-09 23:34:00,64.8,50.1,28.41,SE,127,4.0,6.3,59,0.00,,---,0.00,VWS V14.01,2013-10-10 04:34:00,
2013-10-09 23:39:00,64.8,50.1,28.41,SSW,203,0.0,8.7,59,0.00,,---,0.00,VWS V14.01,2013-10-10 04:39:00,
2013-10-09 23:45:00,64.6,50.4,28.41,SE,141,3.1,8.7,60,0.00,,---,0.00,VWS V14.01,2013-10-10 04:45:00,
2013-10-09 23:50:00,64.6,50.8,28.41,SE,142,4.5,8.7,61,0.00,,---,0.00,VWS V14.01,2013-10-10 04:50:00,
2013-10-09 23:55:00,64.4,50.2,28.38,South,182,3.1,8.7,60,0.00,,---,0.00,VWS V14.01,2013-10-10 04:55:00,